ARIANE 1 DEB, 25098

Orbit data source: Space-Track

ARIANE 1 DEB, 25098 is space debris in HEO originally from a launch on Mon, 24 Dec 1979 UTC launched from the French Guiana (FRGUI). Debris objects in space refer to the collection of defunct objects orbiting the Earth. Examples of debris include non-operational satellites, rocket bodies, and fragments generated from explosions, collisions, or faulty payload assembly.

Loading next visibility...
Identifier
25098, 1979-104D
Orbit
HEO
Country
Flag of FRFR
Related business
Manufacturer
ESA
Mission
Spacecraft
Bus & Motor
Unknown
Mass
Unknown
Launch date (UTC)
1979-12-24 (46 years ago)
Launch vehicle
Unknown
Launch site
French Guiana (FRGUI)
Object type
Payload
Rocket body
Debris
Shape & HBR
Unknown shape, 0.2 m
Radar Cross Section
Medium (>0.1 m² and <1 m²)

Expand to show TLE details & history
Last TLE update: 1 day ago

TLE from 1 day ago
0 ARIANE 1 DEB
1 25098U 79104D   26061.61448557  .00000766  00000-0  21883-2 0  9993
2 25098  17.5765  50.3606 5344624 149.4119 257.3314  4.79265264438559
Epoch: 2026-03-02T14:44Z
TLE epoch observation values (Epoch: 2026-03-02T14:44:51.553Z)
Latitude
-0.00003°
Longitude
28.76085°
Altitude
13,264.159 km
Speed
3.71 km/s
True Right ascension
03h 21m 31s
True Declination
0° 00' 00"
Sunlit
Object was in daylight at epoch
Visualization orbit readout
Latitude
Unknown
Longitude
Unknown
Altitude
Unknown
Speed
Unknown
Apparent Right ascension
Unknown
Apparent Declination
Unknown
Sunlit
N/A
Visualization observer readout
Local Sidereal Time
19:09:23
Azimuth
Unknown
Elevation
Unknown
Doppler factor
Unknown
Orbital elements
Apogee altitude
16,430.443 km
Perigee altitude
541.714 km
Semi-major axis
14,864.215 km
Eccentricity
0.53446
Inclination
17.5765°
RAAN
50.3606°
Arg. of periapsis
149.4119°
True anomaly
210.6519°
Mean anomaly
257.3314°
Eccentric anomaly
232.90562°
Mean motion
1.19765 °/min
Orbital period
300.59 mins
BSTAR
0.0021883
Loading maneuver chart data...
Computing Atmospheric mass density...
Loading historical data...
Loading historical data...
Loading historical data...
Loading historical data...
Loading historical data...
Loading historical data...
Loading historical data...

Documentation

Showing up to 5 results
|